index

BK midden - Weyervlakte
Hechtel-Eksel 18.10.2020
Omega

clublogo
HELGA Orienteering Software © Michael Hock
Contact/Remarks: info@olomega.be Info
Last minute info is beschikbaar op de O'Punch website.

Last minute info est publi sur le website O'Punch.
Last updated: 17.10.2020 11:36:10

Classes D-10 D10B D-12 D-14 D-16 D-18 D-20 DE D21 DB D35 D40 D45 D50 D55 D60 D65 D70 D75 H-10 H10B H-12 H-14 H-16 H-18 H-20 HE H21 H35 H40 H45 H50 H55 H60 H65 H70 H75 H80 H85 H90 SE SD LD
Clubs »« ALTAIR ANTWERP O ARDOC ASUB BAL10 BMOT BORASCA COLG HAMOK HERMA HOC KOL KOVZ NSVA OLIFANT OLVE OMEGA PEGASE SUD O LUX TROL
Total

D-10 (1)

297Lio LINTENBELK.O.L.#1019937#
Top

D10B (5)

471Juliette DE NEYERBELASUB#1019926#
13Anna PASQUASYBELHainaut O.C.#7211828#
393Fien SPELEERSBELK.O.L.#870412#
542Noor TALLOENBELOmega#7525#
322Ninthe WOLLESBELhamok#7000769#
Top

D-12 (6)

43Anaïs MAZYBELC.O. Liège#235097#10:01:00
337Fin MYLLEBELhamok#1020080#10:05:00
268Mila VAN DE MOORTELBELOmega#211622#10:09:00
488Florine FORTEMPSBELC.O. Liège#10142#10:13:00
483Violette MAYERESBELHermathenae#1421075#10:17:00
566Eloïse LOVENSBELC.O. Pégase#1041419#10:21:00
Top

D-14 (9)

101Louise MATTARTBELHermathenae#242888#10:01:00
336Fee MYLLEBELhamok#1020060#10:03:00
382Louise ARNOBELHainaut O.C.#49061#10:05:00
299Kiara NIJSTBELOmega#8004761#10:07:00
345Noor DE MITSBELTROL#8660039#10:09:00
411Juliette MICHELBELHainaut O.C.#7211889#10:11:00
162Jeanne RENARDBELhamok#7212091#10:13:00
412Erine NEUWELSBELHainaut O.C.#7211848#10:15:00
560Elvire PIERLOTBELC.O. Liège#2089828#10:17:00
Top

D-16 (13)

338Jil MYLLEBELhamok#8066800#10:31:00
396Hanne TIESTERSBELOmega#7208652#10:33:00
405Camille LAMBIOTTEBELHainaut O.C.#7211845#10:35:00
161Maya RENARDBELhamok#7212087#10:37:00
104Lotte VERHAEGENBELOmega#1020001#10:39:00
406Gaëlle NEUWELSBELHainaut O.C.#7212081#10:41:00
469Lotte VAN BOVENBELTROL#7040527#10:43:00
493Camille PETITJEANBELHainaut O.C.#7211801#10:45:00
139Sofie BOSMANSBELOmega#7139084#10:47:00
136Sarah ROOMANBELAntwerp Orienteers#8660031#10:49:00
110Marie GILLETBELC.O. Liège#8240505#10:51:00
83Maija TAILLIEUBELK.O.L.#8518925#10:53:00
67Tille DE SMULBELOmega#8448000#10:55:00
Top

D-18 (9)

86Gaëlle FRONHOFFSBELASUB#7444719#11:00:00
395Lotte TIESTERSBELOmega#7208666#11:02:00
423Emma WILLEMSENSBELHermathenae#1686250#11:04:00
146Flore TOELENBELK.O.L.#1691443#11:06:00
294Eva LOPEZ DE PABLOFRAASUB#1019928#11:08:00
88Emma MAESBELK.O.L.#1458651#11:10:00
59Kato KEUPPENSBELOmega#8630913#11:12:00
115Julia KREKELSBELTROL#8003550#11:14:00
370Laurence DEFRAIGNEBELASUB#7002033#11:16:00
Top

D-20 (3)

502Julie SMEETSBELOmega#2061246#10:00:00
303Eske AERDENBELK.O.L.#2068651#10:04:00
461Lene ELSENBELOmega#2026139#10:08:00
Top

DE (28)

440Linda SCHRADERNEDOlifant#8654990#10:12:00
103Rasa ENGSTEDTSWEASUB#8081951#10:14:00
316Silke VAN ROOYBELAntwerp Orienteers#8020116#11:10:00
35Véronique DE BRIEYBELBelgian Military Orienteering Team#8666027#11:12:00
507Kelly GYSENBELK.O.L.#7001003#11:14:00
158Aurélie DESCHEPPERBELBelgian Military Orienteering Team#7554400#11:16:00
261Jolien VANDEBROEKBELhamok#8654986#11:18:00
153Daniëlle DEWICKEREBELAntwerp Orienteers#8170891#11:20:00
550Amandine MALENGREAUBELBelgian Military Orienteering Team#8017170#11:22:00
111Eléonore ROBINSONBELHermathenae#1405886#11:24:00
368Anneleen AERTSBELAntwerp Orienteers#1351990#11:26:00
375Greet PERSOONBELTROL#1019924#11:28:00
391Daria MOSKALENKOUKRC.O. Liège#8666024#11:30:00
539Mira SCHEIRBELBelgian Military Orienteering Team#1019931#11:32:00
437Laurine HERMANBELASUB#9201778#11:34:00
45Aline HERMANSBELC.O. Liège#7211897#11:36:00
463Hannah THIELSBELTROL#8002085#11:38:00
243Jessica LIMPACHBELASUB#49129#11:40:00
163Fanny TILKINBELC.O. Liège#8664183#11:42:00
464Claire SANDEVOIRFRAASUB#921403#11:44:00
174Liesbeth VAN DE VELDEBELBelgian Military Orienteering Team#672000#11:46:00
429Lucie ARNOBELHainaut O.C.#7001938#11:48:00
234Miek FABRÉBELOmega#211615#11:50:00
125Marine SILLIENBELC.O. Pégase#8230100#11:52:00
434Kim GEYPENBELOmega#8308079#11:54:00
141Greet OEYENBELhamok#8202070#11:56:00
66Ems DE SMULBELOmega#8643046#11:58:00
148Anna SERRALLONGAESPTROL#8644889#12:00:00
Top

D21 (10)

553Joni VANHOECKEBELAntwerp Orienteers#49852#11:56:00
79Kim TIREZBELOmega#7211009#11:58:00
475Magalie GILLETBELOmega#2067872#12:02:00
453Vanessa VAN BREEDAMBELTROL#8655044#12:04:00
548Claudia ROOMANBELAntwerp Orienteers#201880#12:08:00
524Elke VERDEYENBELOmega#9090909#12:10:00
378Liesbeth GOVAERTSBELAntwerp Orienteers#1019923#12:12:00
460Lisa ELSENBELOmega#2026138#12:14:00
72Kirsten VERSTRAETEBELhamok#7211237#12:16:00
492Magalie VERSTREPENBELOmega#7139189#12:18:00
Top

DB (1)

121Annelies VOSBELOmega#231930#10:15:00
Top

D35 (3)

333Ellen MOLSBELhamok#8000684#10:18:00
15Marie DESTREEBELHainaut O.C.#782206#10:22:00
340Imke VAN OPSTALNEDK.O.L.#7139094#11:44:00
Top

D40 (17)

431Vanessa RASQUINETBELC.O. Liège#8518934#10:00:00
422Rachel WINTHAGENBELHermathenae#1504243#10:02:00
183Véronique BASTINBELO.L.G. St. Vith ARDOC#7190577#10:04:00
280Ellen DESCHEPPERBELTROL#1409487#10:06:00
394Vinciane MULPASBELASUB#7780924#10:08:00
185Isabelle FREREBELC.O. Liège#1001913#10:10:00
151An FREDERICKXBELASUB#1978121#10:12:00
252Liesbet ROMMENSBELhamok#7009845#10:14:00
341Agnes HERMESZHUNAltaïr C.O.#7208663#10:16:00
255Hilde BREESCHBELTROL#8373990#10:18:00
447Elisabeth SCHUTJESBELhamok#4945#10:20:00
371Annelies GEBOERSBELK.O.L.#1458655#10:22:00
383Julie TIMMERMANSBELHainaut O.C.#7208658#10:24:00
482Leslie CRETTELSBELHermathenae#228346#10:26:00
373Gisela HENNESBELO.L.G. St. Vith ARDOC#7211817#10:28:00
344Ellen BOURGONJONBELTROL#8518913#10:30:00
50Nancy WENDERICKXBELhamok#1991111#10:32:00
Top

D45 (14)

160Amber THYSBELhamok#8666023#11:20:00
241Els SPILLEBEENBELOmega#1391731#11:22:00
82Virginie DEHULLUBELK.O.L.#8311881#11:24:00
19Angelique DE GRANDEBELOmega#8000675#11:26:00
356Béatrice DE LONGUEVILLEBELASUB#9890407#11:28:00
335Karin DECLERCQBELhamok#8066700#11:30:00
108Florence BASTINBELC.O. Liège#300875#11:32:00
249Veerle TULLENEERSBELOmega#1391737#11:34:00
260Catherine DICKBURTBELASUB#49051#11:36:00
222Tina LINTENBELK.O.L.#1414972#11:38:00
403Axelle HEUREUXBELHainaut O.C.#7211893#11:40:00
486Anne-Françoise HENNENBELC.O. Liège#331207#11:42:00
27Caroline MARGREVEBELO.L.G. St. Vith ARDOC#7160571#11:44:00
308Bieke VAN ELSACKERBELOmega#8181074#11:46:00
Top

D50 (15)

362An DUYCKBELASUB#1251959#10:43:00
444Marijs VANDEWEYERBELhamok#7515075#10:45:00
480Natalie BEENAERTSBELOmega#7139199#10:47:00
498Jenny BUELENSBELASUB#1960502#10:49:00
374Annemie JANSENBELK.O.L.#1000668#10:51:00
58Katleen VAN DE MOORTELBELOmega#2010282#10:53:00
305Anne-Marie DELANGHEBELBelgian Military Orienteering Team#1411001#10:55:00
75Anja STYNENBELhamok#1023579#10:57:00
389Cécile VAN BRUSSELBELASUB#9201782#10:59:00
474Kristel PALMANSBELOmega#1391736#11:01:00
376Laurence AUGHUETBELASUB#8220669#11:03:00
339Anja POTVINBELK.O.L.#7209343#11:05:00
78Nicole REVENCUBELASUB#7722227#11:07:00
137Kristel MERTENSBELAntwerp Orienteers#49853#11:09:00
562Corinne SERVAISBELASUB#7484937#11:11:00
Top

D55 (13)

197Sonja NIJSBELOmega#1426967#10:25:00
216Linda VERBRAKENBELTROL#8643047#10:27:00
56Patricia MARCHAL-PIRARDBELC.O. Liège#246873#10:29:00
201Annick ROUSEREZBELASUB#1001914#10:31:00
466Hilde VERCAERENBELK.O.L.#1406597#10:33:00
286Françoise RENARDBELC.O. Liège#8664168#10:35:00
224Anne-Marie CEULEMANSBELBalise 10#1001007#10:37:00
25Maria HENKESBELO.L.G. St. Vith ARDOC#8300008#10:39:00
207Greta MOLSBELhamok#1411915#10:41:00
193Francine SERREBELAltaïr C.O.#8633663#10:43:00
313Leen WOUTERSBELOmega#800028#10:45:00
250Betty DE MEYERBELTROL#8499499#10:47:00
209Kathleen REYNDERSBELK.O.L.#410427#10:49:00
Top

D60 (12)

254Noëlle CHOPRIXBELAltaïr C.O.#320306#11:25:00
106Julienne VANREUSELBELhamok#8004112#11:27:00
140Marie-Christine METTENBELK.O.L.#2037654#11:29:00
1Nicole VANHEESBELhamok#7139183#11:31:00
530Marie-Jeanne WAGENER-COOLBELO.L.V. Eifel#49117#11:33:00
361Anita BAERTSBELBorasca#308548#11:35:00
309Claire MUYLLAERTBELASUB#1451546#11:37:00
36Lea SWINNENBELOmega#1020000#11:39:00
435Myriam BRUYNINCKXBELhamok#703062#11:41:00
265Hedwige LEJEUNEBELC.O. Liège#2015923#11:43:00
177Els PUTBELOmega#1426968#11:45:00
240Bernadette GOVAERTSBELASUB#9011960#11:47:00
Top

D65 (13)

399Liset HENDRICKXBELOmega#4977#10:01:00
132Odette MORETBELK.O.L.#2037657#10:05:00
478Lieve FEYSBELOmega#2067897#10:09:00
450Lily-Anne COLEBELTROL#8518902#10:13:00
70Christiane TOEBINTEBELBalise 10#8318020#10:17:00
321Elisabeth VLIEGENBELN.S.V. Amel#1393088#10:21:00
202Jacqueline MOREAU-SCUVEEBELC.O. Liège#49114#10:25:00
64Simonne SILVIBELK.O.L.#8033226#10:29:00
156Paulette BLOMMENBELOmega#4999#10:33:00
130Bernadette VANDERMEULENBELC.O. Liège#8625774#10:37:00
53Lisette EYKMANSBELK.O.L.#1030340#10:41:00
565Marie QUISTHOUDTBELOmega#1019980#10:45:00
170Monica ROELINGNEDTROL#1952417#11:59:00
Top

D70 (7)

436Françoise CHATELAIN-NANOUXBELHermathenae#1396410#10:35:00
496Lia DE KERFBELTROL#1414119#10:39:00
85Maria DELARBREBELhamok#222303#10:43:00
11Lieve GEENSBELTROL#8660035#10:47:00
204Monique DEFFENSEBELC.O. Pégase#8654992#10:51:00
205Marie-Christine BLANCHEBELASUB#7000506#10:55:00
501Christa ZWIKKERNEDTROL#2143421#11:43:00
Top

D75 (3)

291Danielle NOLENSBELhamok#236498#11:15:00
379Manon RENNOTTE-CHAUVEHEIDBELHermathenae#49034#11:19:00
166Gilberte MARIENBELK.O.L.#1162994#11:23:00
Top

H-10 (11)

196Simon BASTINBELO.L.G. St. Vith ARDOC#2009362#
256Daan COOLSBELTROL#8518909#
347Viek DE MITSBELTROL#8518915#
20Nathan JANSENBELOmega#8310934#
95Sascha KURTNEDTROL#7212294#
296Senne LINTENBELK.O.L.#249918#
484Tom MAYERESBELHermathenae#1001089#
17Emile PASQUASYBELHainaut O.C.#7211896#
320Daan SMOLDERSBELK.O.L.#1090098#
270Mats VAN DE MOORTELBELOmega#1601504#
323Thor WOLLESBELhamok#7139171#
Top

H10B (5)

402Witse BOECKXBELOmega#1019978#
143Jens DEFERMBELhamok#505585#
144Kobe DEFERMBELhamok#1934#
489Emilien FORTEMPSBELC.O. Liège#1019935#
541Mats TALLOENBELOmega#4957#
Top

H-12 (7)

195Louis BASTINBELO.L.G. St. Vith ARDOC#7747586#11:01:00
236Timour FAUCONNIERBELC.O. Liège#1019934#11:05:00
231Tim LEMY STORMEBELC.O. Pégase#1160503#11:09:00
179Maximilian LOOBELO.L.G. St. Vith ARDOC#1451674#11:13:00
401Wout BOECKXBELOmega#4909#11:17:00
62Victor BROUWIERBELHermathenae#7080831#11:21:00
3Thomas JANSENBELOmega#8003985#11:25:00
Top

H-14 (16)

124Gauthier SILLIENBELC.O. Pégase#505600#10:01:00
212Lasse LIBERLOOBELK.O.L.#1041999#10:03:00
187Antoine VOSBELC.O. Liège#1001022#10:05:00
112Mats DE SMULBELOmega#2061260#10:07:00
217Regis VANSCHUYTBROECKBELC.O. Pégase#7101050#10:11:00
408Lucas FABRIONBELHainaut O.C.#7211792#10:13:00
63Mathis BROUWIERBELHermathenae#7050206#10:15:00
44Arnaud MAZYBELC.O. Liège#235098#10:17:00
89Stan MAESBELK.O.L.#31303#10:19:00
346Thor DE MITSBELTROL#8232532#10:21:00
304Torben AERDENBELK.O.L.#2068653#10:23:00
2Bob DE CLEENEBELTROL#8518919#10:25:00
407Khairul ANAMBELHainaut O.C.#7211812#10:27:00
544Florentin LOVENSBELC.O. Pégase#8190106#10:29:00
555Lander VERDUYCKTBELOmega#2026125#10:31:00
123Nathan SILLIENBELC.O. Pégase#49127#10:33:00
Top

H-16 (12)

421Louis BOURGEOISBELHainaut O.C.#7211805#10:44:00
456Luca VAN DE SCHANSBELhamok#8004107#10:46:00
479Victor BOVYBELC.O. Liège#7000302#10:48:00
348Wolf DE MITSBELTROL#8457221#10:50:00
180Sebastian LOOBELO.L.G. St. Vith ARDOC#1451678#10:52:00
425Jonas WILLEMSENSBELHermathenae#1683310#10:54:00
188Louis VOSBELC.O. Liège#1001909#10:56:00
312Nisse VAN GELDERBELOmega#7140504#10:58:00
98Joris SMETBELTROL#8484701#11:00:00
404Everic MISTIAENBELHainaut O.C.#7211901#11:02:00
282Rune DE CLERCQBELTROL#8383240#11:04:00
16Jorn KENNISBELhamok#8668961#11:06:00
Top

H-18 (9)

353Gaël AMERIJCKXBELASUB#9002011#11:16:00
93Merlijn VAN RUMSTBELOmega#8000693#11:18:00
109Justin GILLETBELC.O. Liège#9110702#11:20:00
481Jonas JANSENBELOmega#7139202#11:22:00
155Noah BACKESBELO.L.G. St. Vith ARDOC#1451676#11:24:00
68Willem BAKELANTSBELOmega#8000689#11:26:00
81Lasse TAILLIEUBELK.O.L.#8518926#11:28:00
99Antoine MATTARTBELHermathenae#1020720#11:30:00
247Liam THIELSBELOmega#8000692#11:32:00
Top

H-20 (4)

384Simon ARNOBELHainaut O.C.#7002045#11:42:00
476Tibo GILLETBELOmega#1391735#11:44:00
354Cédric AMERIJCKXBELASUB#8182090#11:46:00
307Matijs LOECKXBELOmega#8060901#11:48:00
Top

HE (55)

182Remco HEREIJGERSNEDAntwerp Orienteers#8103222#10:00:00
94Aleksander KOWALCZYKPOLAntwerp Orienteers#8004599#10:04:00
118Gilles DE NEYERBELASUB#7211838#10:46:00
120Tom GEYPENBELOmega#8660037#10:48:00
532Cédric BOECKXBELBelgian Military Orienteering Team#1019929#10:50:00
465John WILHELMSFINASUB#7901104#10:52:00
318Lennert LENSBELhamok#8004974#10:54:00
211Nicolas LUDOVICYBELC.O. Liège#8664146#10:56:00
164Toon MELISBELhamok#1333334#10:58:00
537Jasper MOREELSBELBelgian Military Orienteering Team#8660033#11:00:00
363Piotr DELANDMETERBELASUB#7211797#11:02:00
536Tomy JANSSENSBELBelgian Military Orienteering Team#8000695#11:04:00
490Winand BERNAERSBELK.O.L.#1121140#11:06:00
531Bert BOCKXBELBelgian Military Orienteering Team#1231233#11:08:00
199Jérémy BREDOBELO.L.V. Eifel#7211796#11:10:00
328Quentin DE NEYERBELASUB#1019927#11:12:00
350Desmond FRANSSENBELTROL#8050553#11:14:00
22Martijn HUSBELK.O.L.#8518939#11:16:00
538Rychon VAN PUTTENBELBelgian Military Orienteering Team#68194#11:18:00
73Adriaan PELCKMANSBELAntwerp Orienteers#8135990#11:20:00
364Philippe DELANDMETERBELASUB#7211803#11:22:00
534Niel DEIJGERSBELBelgian Military Orienteering Team#1019930#11:24:00
128Tim COPPENSBELK.O.L.#1041997#11:26:00
189Philippe CREFCOEURBELAltaïr C.O.#8633664#11:28:00
535Sébastien FRANCOISBELBelgian Military Orienteering Team#8518938#11:30:00
113Julien DACHEBELC.O. Pégase#1393007#11:32:00
349Grégoire VANDEGHINSTEBELHainaut O.C.#8644890#11:34:00
372Nicolas SPILIERSBELAltaïr C.O.#1000989#11:36:00
295Jo LINTENBELBelgian Military Orienteering Team#1458660#11:38:00
244Olivier LUDOVICYBELC.O. Liège#300874#11:40:00
415Jean-Baptiste COLOMBFRAASUB#7061981#11:42:00
315Jeremy GENARBELAntwerp Orienteers#8201090#11:44:00
46Thomas BREDOBELO.L.V. Eifel#7092007#11:46:00
470Klaas MELLEBEEKBELhamok#8150398#11:48:00
418Winston FRANSSENBELTROL#851221#11:50:00
494Warre DE CUYPERBELK.O.L.#1421282#11:52:00
283Julien GILLETBELASUB#1590707#11:54:00
33Thomas VAN DER KLEIJBELhamok#850830#11:56:00
220Christophe BERNARDBELASUB#7502517#11:58:00
301Wouter LEEUWSBELOmega#8210790#12:00:00
272Thomas GILLETBELASUB#1590015#12:02:00
432Bart DELOBELBELOmega#8000690#12:04:00
257Geert SIMKENSBELBelgian Military Orienteering Team#8003953#12:06:00
292Jeroen HOEKXBELhamok#7002030#12:08:00
433Joost TALLOENBELOmega#830413#12:10:00
392Tristan BLOEMENBELC.O. Liège#8633665#12:12:00
38Wouter HUSBELK.O.L.#9403211#12:14:00
194Evert LEEUWSBELOmega#8003491#12:16:00
327Clément DEMEUSEBELC.O. Liège#8664165#12:18:00
169Tomas HENDRICKXBELhamok#8361115#12:20:00
358Simon KREKELSBELTROL#8333943#12:22:00
390François VAN DER OUDERAABELASUB#1311870#12:24:00
12Fabien PASQUASYBELHainaut O.C.#7211899#12:26:00
77Yannick MICHIELSBELTROL#8290791#12:28:00
52Benjamin ANCIAUXBELBelgian Military Orienteering Team#8638375#12:30:00
Top

H21 (4)

552Michael ROOMANBELAntwerp Orienteers#201809#10:56:00
491Vincent VERSTREPENBELOmega#7139081#11:00:00
442James GILBERTGBRhamok#7139181#11:04:00
454Dieter COENBELTROL#8654996#11:08:00
Top

H35 (7)

503Bert MARIENBELK.O.L.#1458671#10:12:00
48Jelle BAKELANTSBELAntwerp Orienteers#7527565#10:14:00
352Tarmo KUUBESTASUB#8101098#10:16:00
150Jeroen VAN DER KLEIJBELhamok#1006389#10:18:00
239Joris KINTBELAntwerp Orienteers#8199388#10:20:00
414François HANZENBELC.O. Liège#49113#10:22:00
84Siegfried BAKELANTSBELAntwerp Orienteers#8117400#10:24:00
Top

H40 (20)

102David ENGSTEDTSWEASUB#8654924#10:00:00
439Davy HEESAKKERSNEDOlifant#7703201#10:02:00
332Dieter SELSBELhamok#8000686#10:22:00
237Tim DILENBELK.O.L.#1041993#10:24:00
190Wannes HENDRICKXBELhamok#9102237#10:26:00
26Michel BASTINBELO.L.G. St. Vith ARDOC#8518924#10:28:00
400Jan BOECKXBELOmega#7005066#10:30:00
178Jürgen LOOBELO.L.G. St. Vith ARDOC#1451677#10:32:00
278Stefaan SCHUTJESBELhamok#4944#10:34:00
451Kris VERDUYCKTBELOmega#2026125#10:36:00
251Raf MAESBELhamok#7211234#10:38:00
61Michaël BROUWIERBELHermathenae#7120676#10:40:00
457Dirk VAN DE SCHANSBELhamok#8004111#10:42:00
266Jan COOLSBELTROL#8303311#10:44:00
5Jan OEYENBELOmega#1410495#10:46:00
324Kristof WOLLESBELhamok#7139156#10:48:00
485Patrick MAYERESBELHermathenae#2393#10:50:00
142Sam DEFERMBELhamok#1001017#10:52:00
229Dolf LEPPENSBELK.O.L.#1484745#10:54:00
18Kim JANSENBELOmega#8000688#10:56:00
Top

H45 (37)

100Eric MATTARTBELHermathenae#1020734#10:00:00
298Tino NIJSTBELOmega#8668567#10:02:00
8Alain MAZYBELC.O. Liège#7211791#10:04:00
235Kris WYNENBELK.O.L.#1403448#10:06:00
28Patrick BLEYENSBELTROL#7300320#10:08:00
173Marc KERCKHOFSBELBelgian Military Orienteering Team#973560#10:10:00
468Donald VAN BOVENBELTROL#710427#10:12:00
184Olivier CHATTLAINBELO.L.G. St. Vith ARDOC#7061171#10:14:00
6Roel SMOLDERSBELK.O.L.#1000671#10:16:00
279Michael HOCKBELO.L.G. St. Vith ARDOC#1973213#10:18:00
505Frédéric BOVYBELC.O. Liège#7212090#10:20:00
424Stephane WILLEMSENSBELHermathenae#1229362#10:22:00
427Renaud VAN WETTERBELC.O. Liège#7212092#10:24:00
281Bob DE CLERCQBELTROL#8518901#10:26:00
246Stefan THIELSBELOmega#4551#10:28:00
387Gaetan CRENIERBELC.O. Liège#7212094#10:30:00
232Frank LEMYBELC.O. Pégase#1451563#10:32:00
134Gerald SOUWEINEBELASUB#8004333#10:34:00
269Roel VAN DE MOORTELBELOmega#8000698#10:36:00
329Tom GEYSBELK.O.L.#1458673#10:38:00
334Pascal MYLLEBELhamok#8066600#10:40:00
186Frédéric DHONDTBELC.O. Liège#1131173#10:42:00
540Vincent SILLIENBELC.O. Pégase#500786#10:44:00
487Edgard FORTEMPSBELC.O. Liège#8270669#10:46:00
342Auke SCHILDERNEDAltaïr C.O.#7208664#10:48:00
273Guido LENGESBELN.S.V. Amel#1151163#10:50:00
306Frederik LOECKXBELOmega#8000691#10:52:00
218Philippe VANSCHUYTBROECKBELC.O. Pégase#7553311#10:54:00
97Kurt SMETBELTROL#9200173#10:56:00
14Filip KENNISBELhamok#8668994#10:58:00
263Arne TAILLIEUBELK.O.L.#8008559#11:00:00
107Quentin GILLETBELC.O. Liège#9031075#11:02:00
215Igor LIBERLOOBELK.O.L.#1041991#11:04:00
119Nicolas SILLIENBELC.O. Pégase#8010105#11:06:00
564Marc TALLOENBELOmega#1019995#11:08:00
96Ralph KURTGERTROL#7300334#11:58:00
506Roland VAN LOONNEDKOVZ#8163646#12:00:00
Top

H50 (28)

331Guy TIREZBELK.O.L.#8369081#10:00:00
138Rudy ROOMANBELAntwerp Orienteers#1401686#10:02:00
326Pierre-Emmanuel DEMEUSEBELC.O. Liège#8664175#10:04:00
181Patrick KORSTJENSBELK.O.L.#7005039#10:06:00
248Koen CROONSBELOmega#1391738#10:08:00
355Christophe AMERIJCKXBELASUB#9061683#10:10:00
419Bart WILLEMSBELOmega#1391732#10:14:00
233Jean-François FAUCONNIERBELC.O. Liège#1019933#10:16:00
175Wim GEERTSBELhamok#8006652#10:18:00
230Luc HANSENBELK.O.L.#1007495#10:20:00
377Richard ROBINSONBELASUB#8150622#10:22:00
452Koen NEYENSBELK.O.L.#1458654#10:24:00
398Iwan VISBELSUD O LUX#8002054#10:26:00
445Paul CROTHERSBELAntwerp Orienteers#8664148#10:28:00
388Benoît DEFRAIGNEBELASUB#9201781#10:30:00
65Olivier DE SMULBELOmega#8281070#10:32:00
39Wim VERVOORTBELTROL#8630901#10:34:00
7Bart MELLEBEEKBELhamok#9150398#10:36:00
343Yves DE MITSBELTROL#8518912#10:38:00
60Gunther DEFERMEBELhamok#320304#10:40:00
165Mark STEENSSENSBELBalise 10#7211868#10:42:00
242Michael HENNESBELO.L.G. St. Vith ARDOC#1019938#10:44:00
459Roman ELSENBELOmega#7139195#10:46:00
302Frank AERDENBELK.O.L.#2068652#10:48:00
508Geert DEBYSERBELOmega#7139194#10:50:00
449Marc ARNARDIBELBalise 10#7211815#10:52:00
267Kris VAN GELDERBELOmega#7700922#10:54:00
420Martin NOLTEGERO.L.V. Eifel#8222100#12:28:00
Top

H55 (23)

168Robert THEISSBELN.S.V. Amel#8196532#11:04:00
413Christian STOFFELSBELBalise 10#8110162#11:06:00
443Marc MEEUWSSENBELTROL#8101015#11:08:00
49Peter HOOGSTRATENEDhamok#7211239#11:10:00
458Maurizio COLONNAITAASUB#1019925#11:12:00
57Patrick BLEYENBELhamok#7705097#11:14:00
317Daniel MARINUSBELTROL#1019942#11:16:00
285Didier DARIMONTBELASUB#7211836#11:18:00
24Freddy HENKESBELO.L.G. St. Vith ARDOC#8196288#11:20:00
152Andre DE VEIRMANBELTROL#8719062#11:22:00
74Danny SWERTSBELhamok#7211008#11:24:00
145Jan TOELENBELK.O.L.#1403449#11:26:00
219Dirk GOOSSENSBELTROL#8625757#11:28:00
545Jean-Philippe LOVENSBELC.O. Pégase#8140564#11:30:00
262Eric VANDEBROEKBELhamok#8638374#11:32:00
381Philippe TAELEMANSBELASUB#7805907#11:34:00
428Serge BAERTBELN.S.V. Amel#8448449#11:36:00
41Erik VAN DYCKBELTROL#8321201#11:38:00
191Dirk DEIJGERSBELhamok#9200995#11:40:00
271Christian GILLETBELASUB#7771119#11:42:00
206Luc MELISBELhamok#1019936#11:44:00
504Philippe DOFFIGNYBELBalise 10#8654991#11:46:00
351Marc CLAESBELhamok#7139185#11:48:00
Top

H60 (24)

245Anne HEIKOOPNEDK.O.L.#1301730#10:04:00
559André PIERLOTBELC.O. Liège#7763014#10:20:00
259Pierre WILLEMSBELASUB#7211909#10:22:00
55Pierre MARCHALBELC.O. Liège#211486#10:24:00
293Wim HOEKXBELhamok#7212338#10:26:00
198Paul CORTHOUTSBELK.O.L.#1041992#10:28:00
314Julien VAN BOSCHBELTROL#8660036#10:30:00
385Dominique BRUYLANTBELASUB#8182129#10:32:00
360Johan CLAESBELhamok#1403167#10:34:00
264Michel TILKINBELC.O. Liège#7208656#10:36:00
397Leo BAEYENSBELOmega#7139083#10:38:00
29Wiet LAENENBELTROL#8001964#10:40:00
448Patrick MOSSOUXBELC.O. Pégase#53510#10:42:00
213Roger HENDRICKXBELhamok#8719026#10:44:00
499Jacques HOFMANSBELASUB#9560310#10:46:00
225Luc WERKXBELBalise 10#1421279#10:48:00
258Etienne DE WITBELK.O.L.#1411005#10:50:00
159Luc TALLOENBELOmega#4954#10:52:00
223André VANHULSTBELBalise 10#1331144#10:54:00
319Karel PEETERSBELK.O.L.#1402003#10:56:00
253Etienne VANDEGHINSTEBELAltaïr C.O.#1281956#10:58:00
76Philippe CLAPUYTBELASUB#7700777#11:00:00
208Willy NICASIBELK.O.L.#1458674#11:02:00
117Jean-Noël DEBEHOGNEBELASUB#7590224#11:04:00
Top

H65 (25)

288Eddie DE KERFNEDTROL#8201902#10:01:00
563Georges BARBIERBELASUB#7793304#11:09:00
47Roger BOCKXBELK.O.L.#1030341#11:11:00
359Claude LEMASSONBELC.O. Pégase#1451560#11:13:00
42Ferdinand GEBOERSBELK.O.L.#1458661#11:15:00
357Jacques SILVESTREBELC.O. Liège#1229565#11:17:00
284Alfons BAKELANTSBELK.O.L.#4927#11:19:00
31Andre AERTSBELhamok#1720934#11:21:00
131Bruno VANDERMEULENBELC.O. Liège#8040953#11:23:00
54Juliaan LINTENBELK.O.L.#406304#11:25:00
71René STEENSSENSBELBalise 10#8377535#11:27:00
105Jackie VANDIJCKBELK.O.L.#8004110#11:29:00
21Guido CEUNENBELhamok#1418619#11:31:00
122Alfred SIMKENSBELK.O.L.#8495209#11:33:00
290Dominique SCHUTJESBELhamok#236106#11:35:00
37Servais HICKBELC.O. Liège#8643366#11:37:00
149Paul BOLSENSBELTROL#8518903#11:39:00
34Marc BRIERSBELK.O.L.#1090100#11:41:00
300Richard MATHOTBELBalise 10#7211872#11:43:00
157Luc HEUNINCKXBELK.O.L.#1828061#11:45:00
80Jean BREDOBELO.L.V. Eifel#7131951#11:47:00
192Jozef BELMANSBELK.O.L.#1451737#11:49:00
9Klaus HELDBELO.L.V. Eifel#8270952#11:51:00
129Rudy CANTREBELK.O.L.#2037651#11:53:00
477Anton BUYTAERTBELOmega#8002098#11:55:00
Top

H70 (27)

203Robert SCUVEEBELC.O. Liège#49107#11:19:00
10Frans WENSBELTROL#1421073#11:21:00
176William MITCHELLGBROmega#1019977#11:23:00
87Jos HOUBENBELK.O.L.#1458657#11:25:00
277Georges DICKERBELASUB#1030849#11:27:00
135Christian KRINGSBELO.L.G. St. Vith ARDOC#8664151#11:29:00
369André VLIEGENBELO.L.V. Eifel#7030948#11:31:00
172Alfred RAESBELBalise 10#253725#11:33:00
430Willy LAMONBELAltaïr C.O.#1451561#11:35:00
287Hubert BASTINBELO.L.G. St. Vith ARDOC#49081#11:37:00
69Fernand SCHEELENBELhamok#7139149#11:39:00
147Eddie DESMEDTBELTROL#1202023#11:41:00
92Georges TIMMERMANSBELK.O.L.#222657#11:43:00
365Jos THYSBELhamok#63841#11:45:00
91Ivo TIMMERMANSBELK.O.L.#1458664#11:47:00
238Leo ADRIAENSSENSBELhamok#7139152#11:49:00
51Freddy SILLIENBELC.O. Pégase#8290147#11:51:00
495Georges VONCKBELTROL#1458669#11:53:00
426Marcel JANSSENBELK.O.L.#1219665#11:55:00
330Mark VAN BRUGGENBELTROL#7002042#11:57:00
167Jos BYLEMANSBELK.O.L.#1876989#11:59:00
497Oswald VAN BOCKSTALBELTROL#8643372#12:01:00
438Vic VANDERSTRAETENBELhamok#8360353#12:03:00
221Jean BAISIPONTBELTROL#8080846#12:05:00
558Serge DERYBELO.L.V. Eifel#7020447#12:07:00
200Ruud SCHONEWILLENEDBorasca#364726#12:17:00
171Mike IN 'T GROENNEDTROL#1933#12:19:00
Top

H75 (10)

274Jean-Pierre VAN DER CRUYSBELASUB#1393109#10:59:00
23Chris NEYENSBELK.O.L.#31387#11:01:00
30Alfons BOSCHBELTROL#701745#11:03:00
467Bert GEUDENSBELK.O.L.#1406593#11:05:00
311Jacques FLAMENTBELASUB#8518923#11:07:00
116Georges DEFERMEBELhamok#437638#11:09:00
446Michel RYSENAERBELASUB#1450719#11:11:00
380Georges RENNOTTEBELHermathenae#49131#11:13:00
227Jean OOMSBELhamok#1424625#11:15:00
500Dirk ZWIKKERNEDTROL#2143422#11:59:00
Top

H80 (6)

228Freddy HERMANBELASUB#1451557#10:57:00
4Jan VAN HEESBELK.O.L.#1406599#11:01:00
40Phil MELLEBEEKBELhamok#8000678#11:05:00
416Georges CEUNENBELK.O.L.#300959#11:09:00
275Michel OOMSBELOmega#8303042#11:13:00
90Henri VANDENBERKBELK.O.L.#1458662#11:17:00
Top

H85 (4)

32Adrianus DE RIJKBELK.O.L.#1458659#11:31:00
549Jozef DUCHESNEBELhamok#8004105#11:35:00
276Frans VAN DE MOORTELBELOmega#8001500#11:39:00
417Bonaventur CLOOSTERMANSBELhamok#9201780#11:43:00
Top

H90 (1)

214Denis REYNDERSBELK.O.L.#4913#10:01:00
Top

SE (7)

546Christel POULAINBELC.O. Pégase#10542#10:11:00
325Maryline DEMEUSEBELC.O. Liège#1994000#10:21:00
521Heazel KEYSERSBELK.O.L.#1030337#10:31:00
554Hugo SILLIENBELC.O. Pégase#1019943#10:41:00
529Nelly FOCKEDEYBELAltaïr C.O.#1451566#11:11:00
366Nadine VERLINDENBELASUB#49065#11:21:00
367Robert HOOFDBELASUB#1451662#11:31:00
Top

SD (13)

519Olaf WOERTELNEDKOVZ#8639631#10:01:00
511Tony PAULYBELTROL#7212291#10:05:00
523Adriaan BURGMANSNEDKOVZ#1007498#10:09:00
547Lucien BOSMANSBELhamok#7139186#10:13:00
513Iris CEULEMANSBELTROL#8655045#10:17:00
386Lucas CRENIERBELC.O. Liège#7212083#10:21:00
512Renske GOOSSENSBELTROL#8071791#10:25:00
462Alexis PINETBELC.O. Liège#7000301#10:29:00
473Rachel ATTARDFRAASUB#228338#11:03:00
518Karl VERVOORTBELTROL#7595#11:11:00
472Walter DE NEYERBELASUB#1590706#11:19:00
517Muriel CHOUFFARTBELC.O. Liège#206498#11:45:00
551Dirk FABRÉBELOmega#211608#11:59:00
Top

LD (14)

509Jorran VAN DER HEIJDENNEDTROL#7777900#10:01:00
528Erik VANDE WEIJERBELOmega#7139192#10:05:00
522Albert Jan KUIPERNEDKOVZ#1007497#10:09:00
525Dirk CEULEMANSBELOmega#7139191#10:13:00
516Jos BULLENBELK.O.L.#1090096#10:17:00
510Hans DE WITNEDK.O.L.#8516525#10:25:00
514Ivan BATCHEVNEDKOVZ#7139107#10:29:00
561Manu VAN HAVERBEKEBELK.O.L.#1030346#10:33:00
515Jan FRYDENLUNDNORhamok#8666021#10:37:00
133Dirk GENARBELAntwerp Orienteers#703008#10:45:00
526Sonja ROSIUSBELOmega#7139206#10:57:00
527Dag DESTREELBELOmega#7139203#11:05:00
114Filip DEBLOUDTSBELAntwerp Orienteers#8518922#11:13:00
441Francis KRIERBELASUB#9520606#11:21:00
Top

Total

Omega82
K.O.L.76
hamok72
TROL61
ASUB60
C.O. Liège48
Antwerp Orienteers20
C.O. Pégase19
Hainaut O.C.19
Hermathenae18
Belgian Military Orienteering Team17
O.L.G. St. Vith ARDOC17
Balise 1011
Altaïr C.O.9
O.L.V. Eifel8
KOVZ5
N.S.V. Amel4
Borasca2
Olifant2
SUD O LUX1
Total: 551